• In Latvia
  • List of Countries
  • For 7 days
  • Water Temperature
  • Satellite Maps
  • Weather Map
  • Weather Widgets
  • user-avatar
    Login

    Hourly Weather Amvrosievka

    Today, 24 September, Monday

    Time Temperature Precipitation Wind Pressure Humidity
    00:00 +12°C° 0 mm 3 mps 749 mmHg 74%
    01:00 +12°C° 0 mm 2 mps 749 mmHg 75%
    02:00 +12°C° 0 mm 2 mps 749 mmHg 76%
    03:00 +11°C° 0 mm 1 mps 749 mmHg 76%
    04:00 +11°C° 0 mm 1 mps 749 mmHg 76%
    05:00 +11°C° 0 mm 1 mps 750 mmHg 77%
    06:00 +10°C° 0 mm 0 mps 750 mmHg 77%
    07:00 +12°C° 0 mm 1 mps 750 mmHg 71%
    08:00 +13°C° 0 mm 2 mps 750 mmHg 65%
    09:00 +15°C° 0 mm 2 mps 749 mmHg 58%
    10:00 +16°C° 0 mm 3 mps 749 mmHg 51%
    11:00 +18°C° 0 mm 3 mps 749 mmHg 44%
    12:00 +19°C° 0 mm 4 mps 749 mmHg 37%
    13:00 +20°C° 0 mm 4 mps 748 mmHg 35%
    14:00 +20°C° 0 mm 5 mps 747 mmHg 33%
    15:00 +21°C° 0 mm 5 mps 747 mmHg 31%
    16:00 +21°C° 0 mm 5 mps 746 mmHg 35%
    17:00 +20°C° 0 mm 5 mps 745 mmHg 39%
    18:00 +19°C° 0 mm 5 mps 744 mmHg 44%
    19:00 +19°C° 0 mm 5 mps 744 mmHg 50%
    20:00 +19°C° 0 mm 4 mps 743 mmHg 57%
    21:00 +18°C° 0 mm 4 mps 743 mmHg 63%
    22:00 +17°C° 0 mm 5 mps 743 mmHg 68%
    23:00 +19°C° 0 mm 5 mps 743 mmHg 73%

    Tomorrow, 25 September, Tuesday

    Time Temperature Precipitation Wind Pressure Humidity
    00:00 +19°C° 0 mm 6 mps 742 mmHg 77%
    01:00 +19°C° 0.1 mm 6 mps 742 mmHg 80%
    02:00 +17°C° 0.1 mm 6 mps 742 mmHg 82%
    03:00 +17°C° 0.1 mm 6 mps 742 mmHg 84%
    04:00 +15°C° 0.4 mm 6 mps 743 mmHg 82%
    05:00 +14°C° 0.4 mm 6 mps 743 mmHg 79%
    06:00 +13°C° 0.4 mm 6 mps 743 mmHg 77%
    07:00 +12°C° 1.1 mm 5 mps 743 mmHg 77%
    08:00 +12°C° 1.1 mm 5 mps 744 mmHg 77%
    09:00 +10°C° 1.1 mm 5 mps 745 mmHg 77%
    10:00 +12°C° 0.2 mm 5 mps 745 mmHg 72%
    11:00 +13°C° 0.2 mm 5 mps 746 mmHg 67%
    12:00 +13°C° 0.2 mm 4 mps 746 mmHg 62%
    13:00 +14°C° 0 mm 4 mps 746 mmHg 59%
    14:00 +14°C° 0 mm 4 mps 747 mmHg 56%
    15:00 +15°C° 0 mm 4 mps 747 mmHg 52%
    16:00 +14°C° 0 mm 4 mps 747 mmHg 53%
    17:00 +14°C° 0 mm 4 mps 747 mmHg 54%
    18:00 +14°C° 0 mm 4 mps 748 mmHg 55%
    19:00 +13°C° 0 mm 4 mps 748 mmHg 58%
    20:00 +12°C° 0 mm 4 mps 749 mmHg 62%
    21:00 +11°C° 0 mm 4 mps 749 mmHg 65%
    22:00 +11°C° 0 mm 3 mps 749 mmHg 67%
    23:00 +10°C° 0 mm 3 mps 750 mmHg 70%

    Day after tomorrow, 26 September, Wednesday

    Time Temperature Precipitation Wind Pressure Humidity
    00:00 +9°C° 0 mm 3 mps 750 mmHg 73%
    01:00 +9°C° 0 mm 3 mps 750 mmHg 75%
    02:00 +9°C° 0 mm 3 mps 751 mmHg 78%
    03:00 +8°C° 0 mm 3 mps 751 mmHg 80%
    04:00 +8°C° 0 mm 3 mps 752 mmHg 82%
    05:00 +8°C° 0 mm 3 mps 752 mmHg 83%
    06:00 +7°C° 0 mm 3 mps 753 mmHg 85%
    07:00 +8°C° 0 mm 3 mps 753 mmHg 78%
    08:00 +8°C° 0 mm 4 mps 754 mmHg 72%
    09:00 +10°C° 0 mm 4 mps 754 mmHg 66%
    10:00 +11°C° 0 mm 4 mps 754 mmHg 58%
    11:00 +13°C° 0 mm 4 mps 755 mmHg 51%
    12:00 +14°C° 0 mm 4 mps 755 mmHg 44%
    13:00 +14°C° 0 mm 4 mps 755 mmHg 42%
    14:00 +14°C° 0 mm 4 mps 755 mmHg 40%
    15:00 +14°C° 0 mm 4 mps 755 mmHg 38%
    16:00 +14°C° 0 mm 3 mps 755 mmHg 39%
    17:00 +13°C° 0 mm 3 mps 755 mmHg 41%
    18:00 +13°C° 0 mm 3 mps 756 mmHg 42%
    19:00 +12°C° 0 mm 3 mps 756 mmHg 45%
    20:00 +11°C° 0 mm 3 mps 756 mmHg 48%
    21:00 +10°C° 0 mm 3 mps 757 mmHg 51%
    22:00 +10°C° 0 mm 2 mps 757 mmHg 53%
    23:00 +9°C° 0 mm 2 mps 757 mmHg 55%

    27 September, Thursday

    Time Temperature Precipitation Wind Pressure Humidity
    00:00 +9°C° 0 mm 2 mps 757 mmHg 57%
    01:00 +8°C° 0 mm 2 mps 757 mmHg 58%
    02:00 +8°C° 0 mm 2 mps 757 mmHg 59%
    03:00 +7°C° 0 mm 2 mps 757 mmHg 60%
    04:00 +7°C° 0 mm 2 mps 757 mmHg 62%
    05:00 +7°C° 0 mm 2 mps 757 mmHg 64%
    06:00 +6°C° 0 mm 2 mps 757 mmHg 65%
    07:00 +8°C° 0 mm 2 mps 757 mmHg 61%
    08:00 +9°C° 0 mm 2 mps 757 mmHg 56%
    09:00 +10°C° 0 mm 2 mps 757 mmHg 51%
    10:00 +11°C° 0 mm 3 mps 757 mmHg 46%
    11:00 +13°C° 0 mm 4 mps 756 mmHg 40%
    12:00 +14°C° 0 mm 4 mps 756 mmHg 34%
    13:00 +14°C° 0 mm 5 mps 755 mmHg 32%
    14:00 +15°C° 0 mm 5 mps 755 mmHg 30%
    15:00 +15°C° 0 mm 5 mps 754 mmHg 29%
    16:00 +15°C° 0 mm 5 mps 754 mmHg 30%
    17:00 +14°C° 0 mm 4 mps 754 mmHg 31%
    18:00 +13°C° 0 mm 4 mps 753 mmHg 33%
    19:00 +13°C° 0 mm 4 mps 753 mmHg 35%
    20:00 +12°C° 0 mm 3 mps 753 mmHg 37%
    21:00 +11°C° 0 mm 3 mps 753 mmHg 39%
    22:00 +11°C° 0 mm 4 mps 753 mmHg 39%
    23:00 +11°C° 0 mm 4 mps 753 mmHg 40%

    28 September, Friday

    Time Temperature Precipitation Wind Pressure Humidity
    00:00 +11°C° 0 mm 4 mps 752 mmHg 40%
    01:00 +11°C° 0 mm 4 mps 752 mmHg 42%
    02:00 +10°C° 0 mm 4 mps 752 mmHg 43%
    03:00 +10°C° 0 mm 4 mps 752 mmHg 44%
    04:00 +10°C° 0 mm 3 mps 751 mmHg 47%
    05:00 +10°C° 0 mm 3 mps 751 mmHg 49%
    06:00 +9°C° 0 mm 3 mps 751 mmHg 51%
    07:00 +11°C° 0 mm 3 mps 751 mmHg 50%
    08:00 +12°C° 0 mm 3 mps 751 mmHg 49%
    09:00 +14°C° 0 mm 4 mps 751 mmHg 48%
    10:00 +15°C° 0 mm 4 mps 751 mmHg 46%
    11:00 +18°C° 0 mm 4 mps 751 mmHg 45%
    12:00 +20°C° 0 mm 4 mps 751 mmHg 43%
    13:00 +21°C° 0 mm 4 mps 750 mmHg 43%
    14:00 +21°C° 0 mm 4 mps 750 mmHg 42%
    15:00 +22°C° 0 mm 5 mps 749 mmHg 42%
    16:00 +21°C° 0 mm 4 mps 749 mmHg 45%
    17:00 +20°C° 0 mm 4 mps 749 mmHg 48%
    18:00 +19°C° 0 mm 3 mps 749 mmHg 52%
    19:00 +18°C° 0 mm 3 mps 749 mmHg 55%
    20:00 +17°C° 0 mm 3 mps 749 mmHg 59%
    21:00 +16°C° 0 mm 3 mps 749 mmHg 63%
    22:00 +15°C° 0 mm 2 mps 749 mmHg 65%
    23:00 +15°C° 0 mm 2 mps 749 mmHg 68%

    29 September, Saturday

    Time Temperature Precipitation Wind Pressure Humidity
    00:00 +15°C° 0 mm 2 mps 749 mmHg 71%
    01:00 +14°C° 0 mm 1 mps 748 mmHg 73%
    02:00 +14°C° 0 mm 1 mps 748 mmHg 75%
    03:00 +14°C° 0 mm 1 mps 748 mmHg 77%
    04:00 +13°C° 0 mm 1 mps 748 mmHg 79%
    05:00 +13°C° 0 mm 1 mps 748 mmHg 80%
    06:00 +12°C° 0 mm 0 mps 748 mmHg 81%
    07:00 +14°C° 0 mm 0 mps 748 mmHg 75%
    08:00 +15°C° 0 mm 0 mps 748 mmHg 69%
    09:00 +16°C° 0 mm 0 mps 748 mmHg 63%
    10:00 +20°C° 0 mm 1 mps 748 mmHg 58%
    11:00 +21°C° 0 mm 1 mps 748 mmHg 53%
    12:00 +22°C° 0 mm 1 mps 748 mmHg 48%
    13:00 +23°C° 0 mm 1 mps 747 mmHg 46%
    14:00 +23°C° 0 mm 1 mps 747 mmHg 43%
    15:00 +24°C° 0 mm 1 mps 746 mmHg 41%
    16:00 +23°C° 0 mm 1 mps 746 mmHg 44%
    17:00 +20°C° 0 mm 0 mps 746 mmHg 46%
    18:00 +19°C° 0 mm 0 mps 746 mmHg 48%
    19:00 +19°C° 0 mm 0 mps 746 mmHg 50%
    20:00 +20°C° 0 mm 1 mps 746 mmHg 52%
    21:00 +19°C° 0 mm 1 mps 746 mmHg 54%
    22:00 +19°C° 0 mm 1 mps 746 mmHg 56%
    23:00 +18°C° 0 mm 1 mps 747 mmHg 59%
    Show more